Погода в Сырейке

Россия / Самарская область     53°20′38″N   50°31′21″E
темп.,
°C
ветер,
м/с
пор.,
м/с
влажн.,
%
обл.,
%
осадки,
мм/ч
давл.,
гПа
погр.,
м
18 октября, пн
пн1801:00+9ю2393100 0.8 101695
04:00+9ю3794100 2.3 1015377
07:00+9ю4792100 1.9 1014341
10:00+10ю1378100 2.0 1013168
13:00+11ююз2462100 0.0 1012412
16:00+11ююз3673100 0.1 1011240
19:00+9ююз268395 0.8 1011281
22:00+8юз2287100 0.8 101034
19 октября, вт
вт1901:00+8зюз2390100 0.0 101072
04:00+8ссз228599 0.0 101019
07:00+7сз2272100 0.0 101027
10:00+8ссз346099 0.0 1011384
13:00+10сз3461100 0.0 10111075
16:00+9ссз4459100 0.0 1010867
19:00+7ссз2456100 0.0 1011140
22:00+5ссз3557100 0.0 1011135
20 октября, ср
ср2001:00+4ссз3563100 0.0 1011129
04:00+3ссз3673100 0.0 1011184
07:00+2ссз5108854 0.0 1011325
10:00+4ссз686872 0.0 1012748
13:00+6ссз7847100 0.0 10121601
16:00+5ссз695396 0.1 10131520
19:00+3ссз611615 0.1 1015831
22:00+2сз6127123 0.1 1017520
21 октября, чт
чт2101:00+1сз511695 0.0 1017422
04:000сз511765 0.0 1019417
07:00−1сз49855 0.0 1019240
10:00+2сз46645 0.0 1020637
13:00+5зюз5650100 0.0 10191057
16:00+5юз5946100 0.0 1017925
19:00+5юз71249100 0.0 1015723
22:00+4юз81579100 0.5 1012740
22 октября, пт
пт2201:00+5юз71580100 0.9 1010639
04:00+7юз71665100 0.9 1008581
07:00+8юз81664100 0.6 1007580
10:00+10зюз81760100 0.6 1006723
13:00+11зюз91656100 0.0 1007792
16:00+12зюз81456100 0.0 1007823
19:00+12зюз71563100 0.0 1009656
22:00+10зюз613732 0.0 1010464